When you browse on this site, cookies collect data to enhance your experience and personalize the content and advertising you see.
Visit our Privacy Policy to learn more. By continuing to use the site, you agree to this use of cookies and data.
  • In Lithuania
  • List of Countries
  • For 7 days
  • Water Temperature
  • Satellite Maps
  • Weather Map
  • Weather Widgets
  • user-avatar
    Login

    Hourly Weather Dinanagar

    Today, 11 December, Tuesday

    Time Temperature Precipitation Wind Pressure Humidity
    00:00 +13°C° 0.2 mm 3 mps 740 mmHg 63%
    01:00 +13°C° 0.2 mm 3 mps 740 mmHg 62%
    02:00 +13°C° 0.2 mm 3 mps 741 mmHg 60%
    03:00 +13°C° 0.1 mm 3 mps 740 mmHg 59%
    04:00 +13°C° 0.1 mm 3 mps 740 mmHg 58%
    05:00 +13°C° 0.1 mm 3 mps 740 mmHg 58%
    06:00 +14°C° 0 mm 2 mps 741 mmHg 56%
    07:00 +14°C° 0 mm 2 mps 741 mmHg 53%
    08:00 +15°C° 0 mm 2 mps 741 mmHg 51%
    09:00 +17°C° 0 mm 2 mps 741 mmHg 44%
    10:00 +20°C° 0 mm 1 mps 741 mmHg 37%
    11:00 +22°C° 0 mm 1 mps 741 mmHg 30%
    12:00 +22°C° 0 mm 1 mps 741 mmHg 30%
    13:00 +22°C° 0 mm 1 mps 740 mmHg 29%
    14:00 +23°C° 0 mm 1 mps 740 mmHg 29%
    15:00 +21°C° 0 mm 1 mps 740 mmHg 32%
    16:00 +20°C° 0 mm 1 mps 740 mmHg 36%
    17:00 +18°C° 0 mm 2 mps 741 mmHg 39%
    18:00 +17°C° 0 mm 2 mps 741 mmHg 40%
    19:00 +16°C° 0 mm 2 mps 742 mmHg 40%
    20:00 +15°C° 0 mm 2 mps 742 mmHg 40%
    21:00 +15°C° 0 mm 2 mps 742 mmHg 39%
    22:00 +15°C° 0 mm 2 mps 742 mmHg 38%
    23:00 +14°C° 0 mm 2 mps 742 mmHg 37%

    Tomorrow, 12 December, Wednesday

    Time Temperature Precipitation Wind Pressure Humidity
    00:00 +14°C° 0 mm 2 mps 742 mmHg 36%
    01:00 +14°C° 0 mm 2 mps 742 mmHg 35%
    02:00 +14°C° 0 mm 2 mps 742 mmHg 33%
    03:00 +13°C° 0 mm 2 mps 742 mmHg 33%
    04:00 +13°C° 0 mm 2 mps 742 mmHg 33%
    05:00 +13°C° 0 mm 2 mps 742 mmHg 33%
    06:00 +14°C° 0 mm 2 mps 742 mmHg 33%
    07:00 +14°C° 0 mm 2 mps 743 mmHg 33%
    08:00 +14°C° 0 mm 2 mps 743 mmHg 33%
    09:00 +17°C° 0 mm 2 mps 743 mmHg 29%
    10:00 +19°C° 0 mm 2 mps 743 mmHg 25%
    11:00 +21°C° 0 mm 2 mps 743 mmHg 20%
    12:00 +21°C° 0 mm 2 mps 742 mmHg 20%
    13:00 +23°C° 0 mm 2 mps 742 mmHg 20%
    14:00 +23°C° 0 mm 1 mps 741 mmHg 20%
    15:00 +22°C° 0 mm 1 mps 742 mmHg 23%
    16:00 +20°C° 0 mm 1 mps 742 mmHg 26%
    17:00 +18°C° 0 mm 2 mps 742 mmHg 29%
    18:00 +17°C° 0 mm 2 mps 742 mmHg 30%
    19:00 +16°C° 0 mm 2 mps 743 mmHg 32%
    20:00 +14°C° 0 mm 3 mps 743 mmHg 33%
    21:00 +14°C° 0 mm 3 mps 744 mmHg 32%
    22:00 +13°C° 0 mm 3 mps 744 mmHg 31%
    23:00 +13°C° 0 mm 3 mps 744 mmHg 30%

    Day after tomorrow, 13 December, Thursday

    Time Temperature Precipitation Wind Pressure Humidity
    00:00 +14°C° 0 mm 2 mps 744 mmHg 30%
    01:00 +13°C° 0 mm 2 mps 744 mmHg 29%
    02:00 +13°C° 0 mm 2 mps 744 mmHg 29%
    03:00 +13°C° 0 mm 2 mps 744 mmHg 29%
    04:00 +12°C° 0 mm 2 mps 744 mmHg 29%
    05:00 +12°C° 0 mm 2 mps 744 mmHg 29%
    06:00 +13°C° 0 mm 2 mps 744 mmHg 30%
    07:00 +13°C° 0 mm 2 mps 745 mmHg 30%
    08:00 +14°C° 0 mm 2 mps 745 mmHg 30%
    09:00 +16°C° 0 mm 1 mps 745 mmHg 26%
    10:00 +19°C° 0 mm 1 mps 744 mmHg 22%
    11:00 +22°C° 0 mm 1 mps 744 mmHg 19%
    12:00 +22°C° 0 mm 1 mps 744 mmHg 18%
    13:00 +23°C° 0 mm 1 mps 743 mmHg 18%
    14:00 +23°C° 0 mm 2 mps 742 mmHg 18%
    15:00 +20°C° 0 mm 2 mps 742 mmHg 20%
    16:00 +19°C° 0 mm 2 mps 742 mmHg 23%
    17:00 +17°C° 0 mm 2 mps 743 mmHg 26%
    18:00 +16°C° 0 mm 2 mps 743 mmHg 27%
    19:00 +15°C° 0 mm 2 mps 744 mmHg 28%
    20:00 +14°C° 0 mm 2 mps 745 mmHg 29%
    21:00 +14°C° 0 mm 2 mps 745 mmHg 29%
    22:00 +13°C° 0 mm 2 mps 745 mmHg 29%
    23:00 +13°C° 0 mm 2 mps 745 mmHg 30%

    14 December, Friday

    Time Temperature Precipitation Wind Pressure Humidity
    00:00 +13°C° 0 mm 2 mps 745 mmHg 29%
    01:00 +12°C° 0 mm 2 mps 745 mmHg 29%
    02:00 +12°C° 0 mm 2 mps 745 mmHg 28%
    03:00 +12°C° 0 mm 2 mps 744 mmHg 28%
    04:00 +10°C° 0 mm 2 mps 744 mmHg 27%
    05:00 +10°C° 0 mm 2 mps 744 mmHg 27%
    06:00 +12°C° 0 mm 2 mps 745 mmHg 27%
    07:00 +12°C° 0 mm 2 mps 745 mmHg 27%
    08:00 +13°C° 0 mm 1 mps 745 mmHg 27%
    09:00 +15°C° 0 mm 1 mps 745 mmHg 24%
    10:00 +19°C° 0 mm 1 mps 745 mmHg 20%
    11:00 +21°C° 0 mm 1 mps 744 mmHg 17%
    12:00 +22°C° 0 mm 1 mps 744 mmHg 16%
    13:00 +21°C° 0 mm 2 mps 743 mmHg 15%
    14:00 +23°C° 0 mm 2 mps 743 mmHg 15%
    15:00 +20°C° 0 mm 2 mps 743 mmHg 17%
    16:00 +18°C° 0 mm 2 mps 744 mmHg 20%
    17:00 +17°C° 0 mm 2 mps 744 mmHg 22%
    18:00 +16°C° 0 mm 2 mps 745 mmHg 23%
    19:00 +15°C° 0 mm 2 mps 746 mmHg 24%
    20:00 +14°C° 0 mm 2 mps 746 mmHg 25%
    21:00 +13°C° 0 mm 2 mps 746 mmHg 25%
    22:00 +13°C° 0 mm 2 mps 747 mmHg 26%
    23:00 +12°C° 0 mm 2 mps 747 mmHg 26%

    15 December, Saturday

    Time Temperature Precipitation Wind Pressure Humidity
    00:00 +12°C° 0 mm 2 mps 746 mmHg 26%
    01:00 +12°C° 0 mm 1 mps 746 mmHg 25%
    02:00 +12°C° 0 mm 1 mps 746 mmHg 25%
    03:00 +11°C° 0 mm 1 mps 746 mmHg 25%
    04:00 +11°C° 0 mm 1 mps 746 mmHg 24%
    05:00 +11°C° 0 mm 1 mps 746 mmHg 24%
    06:00 +11°C° 0 mm 1 mps 746 mmHg 24%
    07:00 +12°C° 0 mm 1 mps 746 mmHg 24%
    08:00 +12°C° 0 mm 1 mps 747 mmHg 24%
    09:00 +15°C° 0 mm 1 mps 746 mmHg 21%
    10:00 +19°C° 0 mm 1 mps 746 mmHg 17%
    11:00 +21°C° 0 mm 1 mps 745 mmHg 14%
    12:00 +22°C° 0 mm 1 mps 745 mmHg 14%
    13:00 +23°C° 0 mm 2 mps 744 mmHg 14%
    14:00 +23°C° 0 mm 2 mps 744 mmHg 13%
    15:00 +20°C° 0 mm 2 mps 744 mmHg 16%
    16:00 +19°C° 0 mm 2 mps 744 mmHg 18%
    17:00 +17°C° 0 mm 2 mps 744 mmHg 21%
    18:00 +16°C° 0 mm 2 mps 744 mmHg 22%
    19:00 +15°C° 0 mm 2 mps 745 mmHg 23%
    20:00 +14°C° 0 mm 2 mps 745 mmHg 23%
    21:00 +14°C° 0 mm 2 mps 745 mmHg 24%
    22:00 +13°C° 0 mm 2 mps 745 mmHg 24%
    23:00 +13°C° 0 mm 2 mps 745 mmHg 24%

    16 December, Sunday

    Time Temperature Precipitation Wind Pressure Humidity
    00:00 +13°C° 0 mm 2 mps 745 mmHg 24%
    01:00 +12°C° 0 mm 1 mps 745 mmHg 24%
    02:00 +12°C° 0 mm 1 mps 745 mmHg 24%
    03:00 +12°C° 0 mm 1 mps 745 mmHg 24%
    04:00 +11°C° 0 mm 1 mps 745 mmHg 24%
    05:00 +11°C° 0 mm 1 mps 745 mmHg 24%
    06:00 +12°C° 0 mm 1 mps 745 mmHg 24%
    07:00 +12°C° 0 mm 1 mps 746 mmHg 24%
    08:00 +13°C° 0 mm 1 mps 746 mmHg 25%
    09:00 +15°C° 0 mm 1 mps 745 mmHg 22%
    10:00 +19°C° 0 mm 1 mps 745 mmHg 19%
    11:00 +22°C° 0 mm 1 mps 745 mmHg 15%
    12:00 +23°C° 0 mm 2 mps 744 mmHg 15%
    13:00 +24°C° 0 mm 2 mps 743 mmHg 14%
    14:00 +25°C° 0 mm 3 mps 742 mmHg 13%
    15:00 +23°C° 0 mm 2 mps 742 mmHg 17%
    16:00 +19°C° 0 mm 2 mps 742 mmHg 20%
    17:00 +17°C° 0 mm 2 mps 742 mmHg 23%
    18:00 +16°C° 0 mm 1 mps 743 mmHg 23%
    19:00 +15°C° 0 mm 1 mps 743 mmHg 23%
    20:00 +15°C° 0 mm 1 mps 744 mmHg 24%
    21:00 +14°C° 0 mm 1 mps 744 mmHg 24%
    22:00 +14°C° 0 mm 1 mps 744 mmHg 23%
    23:00 +13°C° 0 mm 1 mps 744 mmHg 23%
    Show more